Temperature
12 12 12 12 12 12 12 12 12 11 11 11 11 11 11 11 11 11 11 11 11 11 11 11 11 10 10 10 10 10 10 10 10 10 10 10 10 10 10 10 10 9 9
12 12 11 11 11 11 11 11 11 11 11 11 11 11 11 11 11 11 11 11 11 10 10 10 10 10 10 10 10 10 10 9 10 10 9 9 9 9 9 9 9 9 9
11 11 11 11 11 11 11 11 10 10 10 10 10 10 10 10 10 10 10 10 10 10 10 10 10 10 10 9 9 10 9 9 9 9 9 9 9 9 9 9 9 8 8
11 11 11 11 10 10 10 10 10 10 10 10 10 10 10 10 10 10 10 10 10 10 10 10 9 9 9 9 9 9 9 9 9 9 9 9 9 8 8 8 8 8 8
11 10 10 10 10 10 10 10 10 10 10 9 9 9 9 9 9 9 9 9 9 9 9 9 9 9 9 9 9 9 9 9 9 8 8 8 8 8 8 8 7 7 7
10 10 10 10 10 10 9 9 9 9 9 9 9 9 9 9 9 9 9 9 9 9 9 9 9 9 8 8 8 8 8 8 8 8 8 8 8 8 7 7 7 7 7
10 10 10 10 9 9 9 9 9 9 9 9 8 8 8 8 8 8 8 8 8 8 8 8 8 8 8 8 8 8 8 8 8 8 7 7 7 7 7 7 7 6 6
9 9 9 9 9 9 9 9 9 9 8 8 8 8 7 7 7 8 8 8 8 8 8 8 8 8 8 8 8 8 7 7 7 7 7 7 7 6 6 6 6 6 6
9 9 9 9 9 9 9 9 8 9 8 8 8 8 8 7 7 7 7 7 7 7 7 7 7 7 7 7 7 7 7 7 7 7 7 6 6 6 6 6 6 6 5
9 9 9 8 8 8 8 8 8 8 8 8 8 8 8 8 7 7 7 7 7 7 7 7 7 7 7 7 7 7 7 7 6 6 6 6 6 5 5 5 5 5 5
8 8 8 8 8 8 8 8 8 8 8 8 8 7 7 7 7 7 7 7 7 7 7 7 6 6 6 6 6 6 6 6 6 6 6 6 5 5 5 5 5 5 5
8 7 8 7 7 7 7 7 7 7 7 7 7 7 7 7 7 7 7 7 7 7 6 6 6 6 6 6 6 6 6 6 6 5 5 5 5 5 5 5 4 4 4
7 7 7 7 7 7 7 7 7 7 7 7 7 7 7 7 7 7 7 6 6 6 6 6 6 6 6 5 5 5 5 5 5 5 5 5 4 4 4 4 4 4 4
7 7 7 7 7 7 7 7 7 7 7 7 6 6 6 6 6 6 6 6 6 6 6 5 5 5 5 5 5 5 5 5 5 5 4 4 4 4 4 4 4 4 4
6 6 6 6 6 6 6 6 6 6 6 6 6 6 6 6 6 6 6 6 6 5 5 5 5 5 5 5 5 4 4 4 4 4 4 4 4 4 3 3 3 3 3
6 6 6 6 6 6 6 6 6 6 6 6 6 6 6 5 5 5 5 5 5 5 5 5 5 4 4 4 4 4 4 4 4 4 4 3 3 3 3 3 3 3 2
5 5 5 5 5 6 5 5 5 5 5 5 5 5 5 5 5 5 5 5 4 4 4 4 4 4 4 4 4 4 3 3 3 3 3 3 3 3 2 2 2 2 2
5 5 5 5 5 5 5 5 5 5 5 5 5 5 5 5 4 4 4 4 4 4 4 4 4 3 3 3 3 3 3 3 3 3 3 2 2 2 2 2 2 2 1
4 4 4 4 4 4 4 5 5 5 5 5 5 4 4 4 4 4 4 4 4 3 3 3 3 3 3 2 2 2 2 2 2 2 2 2 1 1 1 1 1 1 1
4 4 4 4 4 4 4 4 4 4 4 4 4 4 4 4 4 4 3 3 3 3 3 3 2 2 2 2 2 2 2 2 2 2 1 1 1 1 1 1 1 1 1
3 4 4 4 4 4 3 3 3 4 4 4 4 3 3 3 3 3 3 3 3 3 2 2 2 2 1 1 1 1 1 1 1 1 1 1 1 1 1 1 1 0 0
3 3 3 3 3 3 3 3 3 3 3 3 3 3 3 3 3 3 2 2 2 2 2 2 2 1 1 1 1 0 0 0 0 0 0 1 0 0 0 0 0 -0 -0
3 3 3 3 3 3 3 3 2 2 2 2 3 3 2 2 2 2 2 2 2 2 1 1 1 1 1 1 0 0 -0 -0 -0 -0 -0 -0 0 -0 -0 -0 -0 -0 -1
2 2 2 2 2 2 2 2 2 2 2 2 2 2 2 2 2 2 2 2 2 2 1 1 1 1 0 0 -0 -0 -1 -1 -1 -1 -1 -1 -0 -0 -0 -0 -1 -1 -1
2 2 1 1 1 2 2 2 1 1 1 1 1 1 1 1 1 1 1 1 1 1 1 1 1 0 -0 -0 -0 -1 -1 -1 -1 -1 -1 -1 -1 -1 -1 -1 -1 -1 -1
1 1 1 1 1 1 1 1 1 1 1 1 1 1 1 1 1 1 1 1 1 1 1 0 0 -0 -0 -1 -1 -1 -1 -2 -2 -2 -2 -2 -2 -2 -2 -1 -1 -1 -2
Wind_Speed
5 5 4 5 5 5 5 5 6 7 7 7 7 8 7 8 7 7 7 7 7 7 7 7 7 7 7 7 6 6 6 6 6 6 6 6 6 6 6 7 7 7 7
7 6 4 4 5 6 6 6 6 6 5 6 6 6 7 7 7 7 7 7 6 6 6 6 7 7 6 6 6 5 5 5 6 6 5 5 5 4 5 5 6 6 6
9 7 5 4 5 6 7 6 6 6 5 5 4 5 6 7 7 7 7 7 6 6 6 6 6 6 5 5 5 5 5 4 4 4 5 5 5 4 4 4 4 4 5
9 8 5 4 6 7 6 4 4 4 3 3 3 2 4 5 6 6 7 7 6 5 5 5 5 5 5 4 4 4 4 3 3 3 3 4 4 4 4 3 3 3 4
9 8 5 5 7 6 4 4 3 4 4 4 3 3 3 3 4 5 5 6 6 5 5 4 4 4 4 3 3 3 2 2 2 2 2 3 3 4 4 4 4 3 3
9 8 5 6 7 4 4 4 4 4 4 4 4 4 3 2 3 3 4 4 5 5 5 5 4 3 3 3 2 2 1 1 1 1 1 2 2 3 3 3 4 4 3
9 8 5 5 5 4 5 5 4 5 3 3 4 3 3 3 2 1 2 3 3 4 5 4 4 3 2 2 2 1 1 1 0 1 1 2 3 3 3 3 4 4 4
8 7 6 5 5 4 5 5 5 4 2 3 3 3 1 2 2 1 1 1 2 3 3 3 3 2 2 2 1 1 0 1 1 1 1 2 3 3 3 3 3 4 5
8 7 6 5 5 5 6 5 6 5 4 2 2 4 3 3 1 1 1 0 1 1 1 2 2 2 2 2 1 1 1 2 2 2 2 2 3 3 3 3 4 4 5
7 7 7 7 6 5 5 6 5 4 6 4 2 1 2 3 3 1 1 1 0 1 1 1 1 2 2 2 1 2 2 2 3 3 4 3 3 3 3 4 4 4 5
6 6 7 6 6 5 6 6 5 5 5 5 4 2 2 2 2 3 2 2 1 2 1 2 2 2 2 2 2 2 2 2 3 4 5 4 4 4 4 4 4 5 6
4 5 6 6 6 5 5 5 6 6 5 5 4 3 3 3 2 2 2 2 2 2 2 2 2 3 2 2 2 3 2 2 3 4 5 5 4 4 5 5 5 5 6
4 6 6 6 5 5 6 6 5 6 6 6 5 3 3 3 3 3 3 2 2 2 2 2 3 3 3 3 3 3 2 3 4 5 6 5 5 5 5 5 6 6 6
5 6 6 6 6 6 6 6 5 5 5 5 6 5 3 2 2 3 3 3 2 2 2 3 2 3 3 4 4 3 3 4 5 6 6 6 6 6 6 6 6 6 7
4 5 6 6 6 6 6 6 5 5 5 5 5 5 3 2 3 3 3 4 4 3 4 4 2 2 4 4 4 4 4 5 6 6 7 6 6 6 6 6 6 6 7
5 6 6 6 6 6 6 6 5 5 5 5 4 5 4 3 3 3 3 3 3 4 4 3 3 2 3 3 4 4 5 6 7 8 8 7 7 7 6 6 7 7 7
6 6 6 7 7 6 6 6 6 6 7 5 5 6 5 4 3 3 3 3 3 3 3 3 2 2 2 2 3 4 5 5 6 8 8 8 8 8 7 7 7 7 8
6 6 6 6 6 6 6 7 7 7 7 7 6 6 5 4 4 4 3 4 3 3 3 3 2 2 2 2 2 2 4 5 6 7 8 8 8 7 7 7 7 8 8
6 6 6 6 7 6 6 6 7 6 7 7 6 7 6 6 5 4 4 4 3 3 2 3 3 2 2 1 1 2 3 4 6 7 7 7 7 7 8 8 8 9 9
6 6 6 6 6 6 6 6 6 5 5 5 5 6 6 7 7 6 5 5 4 3 3 2 2 2 2 1 1 2 3 2 4 5 6 7 8 8 8 9 9 9 10
5 5 5 5 5 5 6 7 6 6 6 5 5 5 5 6 7 7 5 5 5 4 3 3 3 2 2 2 2 2 3 3 3 2 3 4 6 6 7 9 9 10 11
4 5 5 5 5 5 7 8 7 5 5 6 5 4 4 5 7 7 7 7 7 6 6 5 4 4 4 3 3 2 2 2 4 2 2 4 4 4 6 8 10 11 12
4 4 5 5 5 5 7 8 8 6 5 5 5 5 4 4 5 5 5 5 5 7 7 6 6 6 5 5 4 4 3 4 5 3 2 5 3 5 6 9 11 12 12
3 4 4 5 4 5 7 8 7 6 5 4 5 5 5 5 5 5 4 4 4 4 5 4 5 6 5 4 5 4 4 3 3 3 2 4 4 4 6 8 10 10 10
3 3 3 4 4 4 7 7 7 4 4 4 4 4 5 5 7 7 5 5 4 3 4 6 6 5 5 5 4 2 2 2 4 3 2 2 3 4 4 4 7 9 10
2 2 2 2 3 3 5 7 7 4 4 4 3 4 6 6 7 8 6 6 6 4 3 2 2 2 2 2 4 4 4 3 3 3 2 2 2 2 3 3 4 7 9
Wind_Direction
140 133 133 134 131 130 129 126 121 117 113 114 114 112 110 109 108 103 102 103 111 114 113 111 109 104 99 94 91 82 80 79 77 73 70 68 64 61 58 55 52 52 49
150 145 141 140 142 144 143 139 132 126 118 116 111 113 115 116 114 109 107 106 114 123 123 119 117 113 107 101 96 88 79 81 76 71 66 61 56 54 54 54 53 50 48
155 149 146 148 154 150 142 131 122 118 114 112 106 106 111 118 121 119 117 114 111 116 125 124 120 117 114 111 104 99 88 83 80 68 59 54 47 42 39 42 43 45 44
157 149 148 157 157 147 139 131 127 118 111 112 107 98 103 112 118 123 122 120 114 110 116 126 126 126 122 116 105 100 98 84 83 70 55 45 36 34 30 26 28 35 37
160 154 153 158 156 143 138 144 135 136 129 120 110 90 85 100 112 121 118 122 121 120 114 121 125 129 127 118 111 102 104 96 79 69 52 38 26 29 25 20 19 12 25
164 158 153 157 154 145 148 143 140 131 134 134 110 83 59 72 97 112 124 129 132 132 122 114 112 111 120 119 102 97 116 127 55 39 32 22 11 5 5 10 11 1 6
166 161 159 161 158 163 164 154 141 137 132 130 107 80 32 37 70 80 116 129 130 134 132 130 128 124 124 119 108 89 146 189 268 317 332 342 341 338 338 343 352 358 357
168 169 163 168 167 161 158 158 148 144 144 146 137 129 100 7 2 28 78 122 122 129 132 146 143 143 151 132 116 80 19 285 247 305 327 350 344 337 339 346 350 348 345
173 171 171 169 171 169 171 171 165 154 162 166 148 148 154 196 242 324 323 104 128 138 169 157 159 166 167 141 127 262 268 304 298 306 312 329 334 329 334 343 341 342 340
176 177 177 176 174 173 173 178 173 162 161 168 155 115 133 149 156 192 302 312 238 197 240 238 181 161 176 177 203 237 250 282 296 296 299 297 309 314 316 325 325 329 329
181 180 177 175 177 176 176 175 171 166 168 170 169 156 121 96 121 152 208 262 298 282 260 234 203 187 198 202 211 222 235 262 280 287 291 287 291 301 307 314 317 322 323
187 184 178 176 180 178 177 178 176 174 175 169 167 164 163 163 174 157 178 220 247 273 272 244 213 208 213 227 238 240 237 256 278 288 293 289 294 301 305 310 312 312 316
198 198 188 182 182 181 176 170 173 181 179 174 175 179 176 177 160 156 156 177 230 270 281 271 238 221 226 233 242 240 255 267 274 281 285 284 289 295 297 299 302 305 307
203 194 187 184 184 181 179 173 176 183 181 181 183 179 177 184 167 167 165 160 176 261 267 261 271 232 228 226 236 239 257 273 275 279 282 286 289 287 288 292 294 300 302
197 189 187 186 184 182 182 177 183 184 181 187 186 182 179 185 180 178 167 166 166 203 241 245 245 253 237 225 241 242 254 271 277 279 279 283 286 282 282 287 291 294 296
190 190 193 190 186 184 182 182 185 182 182 192 187 181 185 185 181 177 176 177 174 183 222 232 229 242 234 239 254 257 263 276 279 279 274 272 275 278 281 283 283 288 291
189 192 197 194 191 190 186 187 190 184 186 189 188 187 194 184 183 182 176 179 183 177 213 247 239 246 230 236 265 259 266 271 276 278 272 273 275 274 276 279 282 289 291
191 189 192 195 193 192 191 189 190 188 189 193 194 190 197 188 188 190 188 193 194 188 193 223 242 241 244 245 244 257 278 277 277 277 273 273 273 274 276 278 281 287 291
191 185 186 195 195 193 192 192 189 190 194 196 195 194 197 187 197 200 197 199 198 192 187 199 229 238 251 262 268 284 286 284 284 283 281 272 272 274 277 278 280 284 287
187 186 188 192 191 189 190 189 184 186 191 195 196 198 199 197 199 199 199 200 190 182 176 186 213 232 241 261 242 268 289 277 286 290 284 279 277 276 276 280 282 283 285
188 186 185 189 188 189 192 188 187 188 191 196 200 205 205 201 201 203 201 196 188 188 187 195 216 231 235 234 242 237 266 283 286 272 279 280 276 273 276 279 280 279 281
183 185 186 189 194 199 192 192 191 191 196 199 204 209 210 205 204 206 206 202 195 193 200 207 222 233 238 232 225 236 253 286 286 265 267 280 261 261 268 272 277 279 278
175 183 188 190 198 196 191 195 195 192 196 203 204 203 209 211 202 196 200 204 212 212 208 207 218 230 229 223 213 224 233 247 261 273 269 275 268 264 269 279 281 278 278
170 183 187 191 198 202 193 196 192 190 197 206 206 203 205 208 203 189 185 200 216 222 220 218 220 229 227 216 210 218 229 247 278 275 246 266 277 275 286 281 280 281 285
163 177 181 183 196 211 200 196 189 186 199 209 210 204 201 205 203 192 187 196 215 233 228 221 226 232 233 225 203 180 210 251 278 275 245 249 280 297 287 272 275 287 292
156 154 154 168 186 209 203 197 191 189 198 204 205 208 210 208 203 200 198 196 211 224 208 208 226 240 233 216 212 203 205 225 263 269 242 238 270 313 299 276 272 290 295
Height
1536 1538 1539 1541 1542 1544 1545 1547 1548 1549 1551 1552 1553 1554 1555 1556 1557 1558 1558 1559 1559 1560 1560 1560 1560 1560 1560 1560 1560 1560 1560 1560 1560 1559 1559 1558 1558 1558 1557 1557 1556 1555 1555
1534 1536 1537 1539 1541 1542 1544 1545 1547 1548 1549 1551 1552 1553 1554 1555 1556 1557 1557 1558 1559 1559 1559 1559 1559 1559 1560 1560 1559 1559 1559 1559 1559 1558 1558 1558 1557 1557 1557 1556 1555 1554 1554
1532 1534 1535 1537 1539 1540 1542 1544 1545 1547 1548 1549 1551 1552 1553 1554 1555 1556 1556 1557 1558 1558 1558 1558 1558 1558 1558 1559 1558 1558 1558 1558 1558 1558 1557 1557 1557 1556 1556 1555 1554 1554 1553
1530 1531 1533 1535 1537 1538 1540 1542 1543 1545 1546 1548 1549 1550 1552 1552 1553 1554 1555 1556 1556 1557 1557 1557 1557 1557 1557 1557 1557 1557 1557 1557 1557 1557 1556 1556 1556 1555 1555 1554 1553 1552 1551
1527 1529 1531 1533 1535 1536 1538 1540 1541 1543 1544 1546 1548 1549 1550 1551 1552 1553 1554 1554 1555 1555 1556 1556 1556 1556 1556 1556 1556 1556 1555 1555 1555 1555 1555 1554 1554 1554 1553 1553 1552 1551 1550
1525 1527 1529 1530 1532 1534 1536 1537 1539 1541 1543 1544 1546 1547 1549 1550 1550 1551 1552 1553 1553 1554 1554 1554 1555 1555 1554 1554 1555 1554 1554 1554 1554 1554 1553 1553 1552 1552 1552 1551 1550 1549 1548
1522 1524 1526 1528 1529 1531 1533 1535 1537 1539 1540 1542 1544 1546 1547 1548 1548 1549 1550 1551 1551 1552 1552 1553 1553 1553 1553 1553 1553 1552 1552 1552 1552 1552 1551 1551 1550 1550 1549 1549 1548 1548 1547
1519 1521 1523 1525 1527 1528 1530 1532 1534 1535 1537 1539 1541 1543 1545 1547 1546 1547 1548 1549 1550 1550 1550 1551 1551 1551 1551 1551 1551 1551 1551 1550 1550 1550 1549 1549 1548 1548 1547 1547 1546 1546 1545
1516 1518 1520 1522 1524 1525 1527 1528 1530 1532 1534 1536 1539 1541 1542 1542 1543 1545 1545 1546 1547 1548 1548 1549 1549 1549 1549 1549 1548 1549 1549 1548 1548 1548 1547 1547 1546 1546 1545 1544 1544 1543 1543
1513 1515 1516 1518 1520 1522 1524 1525 1527 1529 1531 1532 1535 1537 1539 1540 1541 1541 1543 1543 1544 1545 1546 1546 1547 1547 1547 1546 1546 1546 1546 1546 1545 1545 1545 1544 1544 1543 1543 1542 1541 1540 1540
1509 1511 1513 1515 1517 1519 1520 1522 1524 1526 1527 1529 1531 1533 1535 1537 1538 1538 1538 1540 1541 1542 1543 1543 1544 1544 1544 1544 1544 1544 1543 1543 1543 1543 1542 1542 1541 1541 1540 1539 1538 1538 1537
1505 1507 1509 1511 1513 1515 1517 1519 1520 1522 1524 1526 1528 1530 1531 1533 1534 1535 1535 1536 1537 1539 1539 1540 1540 1541 1541 1541 1541 1541 1540 1540 1540 1539 1539 1539 1538 1538 1537 1536 1535 1534 1534
1501 1503 1505 1507 1509 1511 1513 1515 1517 1519 1520 1522 1524 1526 1528 1530 1531 1532 1533 1533 1534 1535 1536 1537 1537 1537 1537 1537 1537 1537 1537 1536 1536 1536 1536 1535 1535 1535 1534 1533 1532 1531 1530
1497 1499 1501 1503 1505 1507 1509 1511 1513 1515 1517 1518 1520 1522 1524 1526 1528 1529 1530 1531 1531 1531 1532 1533 1533 1534 1534 1534 1534 1534 1533 1533 1532 1532 1532 1532 1531 1531 1530 1529 1528 1527 1526
1493 1495 1497 1499 1501 1503 1505 1507 1509 1511 1513 1515 1516 1518 1520 1522 1524 1525 1526 1527 1528 1528 1528 1529 1529 1530 1530 1531 1530 1530 1529 1529 1529 1528 1528 1528 1527 1527 1526 1525 1524 1523 1522
1489 1490 1492 1494 1496 1498 1501 1503 1505 1507 1509 1511 1512 1514 1516 1518 1519 1521 1522 1523 1524 1525 1524 1525 1525 1526 1527 1527 1527 1526 1526 1525 1525 1524 1524 1523 1523 1522 1522 1521 1519 1518 1517
1484 1486 1488 1490 1492 1494 1496 1499 1501 1503 1504 1506 1508 1510 1512 1514 1515 1516 1518 1519 1520 1521 1520 1521 1522 1523 1523 1523 1522 1522 1522 1521 1520 1520 1519 1519 1518 1518 1517 1516 1515 1514 1513
1480 1482 1484 1486 1488 1490 1492 1494 1496 1498 1500 1502 1503 1505 1507 1509 1510 1512 1513 1514 1515 1516 1517 1517 1517 1518 1519 1519 1518 1518 1517 1517 1516 1515 1515 1514 1514 1513 1512 1511 1510 1509 1508
1476 1478 1480 1481 1483 1485 1487 1489 1492 1494 1495 1497 1499 1501 1503 1504 1506 1507 1509 1510 1511 1512 1513 1513 1513 1514 1514 1514 1514 1513 1513 1512 1512 1511 1510 1510 1509 1508 1508 1507 1506 1505 1503
1472 1474 1475 1477 1479 1481 1483 1485 1487 1489 1491 1493 1495 1496 1498 1500 1501 1503 1504 1505 1506 1507 1508 1508 1509 1509 1509 1509 1509 1508 1507 1507 1507 1506 1506 1505 1504 1504 1503 1502 1501 1500 1498
1468 1470 1472 1473 1475 1477 1478 1480 1482 1484 1486 1488 1490 1492 1493 1495 1497 1499 1500 1501 1502 1503 1503 1504 1504 1504 1504 1504 1504 1504 1503 1502 1502 1501 1501 1500 1499 1498 1498 1497 1496 1494 1493
1464 1466 1468 1469 1471 1473 1474 1476 1478 1480 1482 1484 1486 1488 1489 1491 1492 1494 1496 1497 1498 1499 1499 1499 1500 1500 1500 1500 1500 1500 1499 1498 1497 1497 1496 1495 1495 1493 1492 1491 1491 1489 1488
1460 1462 1463 1465 1467 1468 1471 1472 1474 1476 1478 1480 1482 1483 1485 1487 1488 1490 1491 1492 1493 1494 1495 1496 1495 1495 1496 1496 1496 1496 1495 1494 1493 1493 1492 1489 1489 1488 1487 1486 1485 1484 1483
1457 1458 1459 1461 1463 1465 1467 1469 1470 1472 1474 1476 1477 1479 1481 1482 1484 1485 1487 1488 1488 1489 1490 1491 1491 1491 1492 1492 1492 1492 1491 1490 1489 1488 1488 1485 1483 1482 1482 1481 1480 1478 1477
1453 1454 1456 1458 1459 1461 1463 1465 1467 1468 1470 1471 1473 1475 1476 1478 1480 1481 1483 1483 1483 1484 1485 1486 1487 1487 1487 1488 1488 1487 1486 1485 1483 1483 1482 1481 1478 1476 1475 1474 1474 1473 1472
1449 1451 1452 1454 1456 1458 1459 1461 1463 1465 1466 1467 1468 1470 1472 1474 1475 1476 1478 1478 1479 1479 1481 1481 1481 1482 1482 1483 1483 1482 1482 1481 1479 1478 1477 1477 1474 1473 1470 1468 1468 1468 1466